Location: Caltech
(34.1382°N, 118.1253°W)
Time: 00:06:16
(UTC-07:00)

Cosmos 1758 Rocket - Visible Passes

Search period start: 30 March 2015 00:00
Search period end: 09 April 2015 00:00
Orbit: 602 x 638 km, 82.5° (Epoch: 29 March)

Date Brightness Start Highest point End Pass type
(mag) Time Alt. Az. Time Alt. Az. Time Alt. Az.
30 Mar 5.7 04:10:45 21° ESE 04:11:54 23° E 04:15:23 10° NE visible
30 Mar 4.8 05:47:59 17° WSW 05:49:47 22° WNW 05:53:06 10° NNW visible
31 Mar 4.4 04:29:01 44° ESE 04:29:31 47° E 04:33:41 10° NNE visible
31 Mar 5.5 06:06:21 10° W 06:07:47 11° WNW 06:08:56 10° NW visible
01 Apr 3.3 04:47:11 82° WNW 04:47:11 82° WNW 04:51:30 10° N visible
02 Apr 6.5 03:28:04 13° ENE 03:28:04 13° ENE 03:29:24 10° ENE visible
02 Apr 4.1 05:05:16 38° WNW 05:05:16 38° WNW 05:08:58 10° N visible
03 Apr 5.8 03:46:06 23° ENE 03:46:06 23° ENE 03:48:29 10° NE visible
03 Apr 5.0 05:23:18 19° WNW 05:23:18 19° WNW 05:25:56 10° NNW visible
04 Apr 5.0 04:04:04 34° NE 04:04:04 34° NE 04:06:43 10° NNE visible
05 Apr 4.7 04:21:59 34° N 04:21:59 34° N 04:24:29 10° N visible
06 Apr 6.8 03:02:40 10° NE 03:02:40 10° NE 03:02:42 10° NE visible
06 Apr 5.1 04:39:51 23° NNW 04:39:51 23° NNW 04:41:53 10° NNW visible
07 Apr 6.3 03:20:30 16° NE 03:20:30 16° NE 03:21:35 10° NNE visible
07 Apr 5.6 04:57:42 14° NW 04:57:42 14° NW 04:58:44 10° NNW visible
08 Apr 5.9 03:38:19 20° NNE 03:38:19 20° NNE 03:39:43 10° NNE visible
